User: anonymous   Login
Location: Sternwarte Stuttgart
(48.7670°N, 9.1830°E)
Time: 08:12:00
(UTC+02:00)
Language:

Cosmos 1908 - Orbit

View from above orbital plane
View from above orbital plane
View from above satellite
View from above satellite

Ground track
Ground track

The orbit data is extracted from the following two-line orbital elements,

1 18748U 88001A   19292.12455814  .00000070  00000-0  20689-5 0  9995
2 18748  82.4692 297.8548 0013726 171.0488 189.0992 15.14709910734999
Epoch (UTC): 19 October 2019 02:59:21
Eccentricity: 0.0013726
inclination: 82.4692°
perigee height: 512 km
apogee height: 531 km
right ascension of ascending node: 297.8548°
argument of perigee: 171.0488°
revolutions per day: 15.14709910
mean anomaly at epoch: 189.0992°
orbit number at epoch: 73499

The dashed part of the orbit path shows where the satellite is in the earth's shadow,  

DLR